Weather History for Fort Drum, NY

Change the Weather History Date:

Friday, September 20, 2013

  Actual Average Record
Temperature  
Mean Temperature 66 °F -  
Max Temperature 81 °F 66 °F 84 °F (2000)
Min Temperature 52 °F 46 °F 37 °F (1999)
Cooling Degree Days 2    
Growing Degree Days 16 (Base 50)    
Moisture  
Dew Point 55 °F    
Average Humidity 68    
Maximum Humidity 93    
Minimum Humidity 39    
Precipitation  
Precipitation 0.00 in - - ()
Sea Level Pressure  
Sea Level Pressure 29.94 in    
Wind  
Wind Speed 10 mph (SSE)    
Max Wind Speed 15 mph    
Max Gust Speed 16 mph    
Visibility 10 miles    
Events      
Averages and records for this station are not official NWS values.
T = Trace of Precipitation, MM = Missing Value Source: NWS Daily Summary

Daily Weather History Graph

Daily Weather History Graph

Search for Another Location

Airport:

Trip Planner

Search our weather history database for the weather conditions in past years. The results will help you decide how hot, cold, wet, or windy it might be!

Date:

Astronomy

Sep. 20, 2013 Rise Set
Actual Time 6:48 AM EDT 7:03 PM EDT
Civil Twilight 6:19 AM EDT 7:32 PM EDT
Nautical Twilight 5:45 AM EDT 8:06 PM EDT
Astronomical Twilight 5:10 AM EDT 8:41 PM EDT
Moon 7:30 PM EDT (9/20) 8:04 AM EDT (9/20)
Length of Visible Light 13h 13m
Length of Day
12h 15m
Full, 98% of the Moon is Illuminated
Sep 20
Full
Sep 26
Last Quarter
Oct 4
New
Oct 11
First Quarter
Oct 18
Full

Hourly Weather History & Observations

Time (EDT) Temp. Heat Index Dew Point Humidity Pressure Visibility Wind Dir Wind Speed Gust Speed Precip Events Conditions
12:58 AM 56.1 °F - 53.2 °F 90% 30.03 in 10.0 mi SSE 9.2 mph - N/A   Clear
1:58 AM 54.3 °F - 52.3 °F 93% 30.03 in 10.0 mi SSE 8.1 mph - N/A   Clear
2:58 AM 54.0 °F - 51.8 °F 92% 30.01 in 10.0 mi SSE 11.5 mph - N/A   Clear
3:58 AM 53.6 °F - 50.5 °F 89% 30.02 in 10.0 mi SE 10.4 mph - N/A   Clear
4:58 AM 52.7 °F - 50.2 °F 91% 30.02 in 10.0 mi SSE 9.2 mph - N/A   Clear
5:58 AM 52.5 °F - 50.0 °F 91% 30.01 in 10.0 mi SSE 8.1 mph - N/A   Clear
6:58 AM 52.2 °F - 50.0 °F 92% 30.01 in 10.0 mi SSE 8.1 mph - N/A   Clear
7:58 AM 54.7 °F - 50.7 °F 86% 30.03 in 10.0 mi SSE 9.2 mph - N/A   Clear
8:58 AM 59.5 °F - 52.7 °F 78% 30.04 in 10.0 mi SE 8.1 mph - N/A   Clear
9:58 AM 65.3 °F - 55.8 °F 71% 30.01 in 10.0 mi SSE 8.1 mph - N/A   Clear
10:58 AM 71.1 °F - 58.6 °F 65% 30.00 in 10.0 mi SE 8.1 mph - N/A   Clear
11:58 AM 75.6 °F - 59.4 °F 57% 29.97 in 10.0 mi SSW 11.5 mph 16.1 mph N/A   Clear
12:58 PM 78.6 °F - 56.1 °F 46% 29.95 in 10.0 mi SSW 15.0 mph - N/A   Clear
1:58 PM 79.7 °F - 54.3 °F 41% 29.93 in 10.0 mi SSW 9.2 mph - N/A   Clear
2:17 PM 80.6 °F 80.3 °F 53.6 °F 39% 29.92 in 10.0 mi SSW 11.5 mph - N/A   Clear
2:58 PM 80.8 °F 80.5 °F 54.7 °F 40% 29.91 in 10.0 mi SW 12.7 mph - N/A   Clear
3:58 PM 81.5 °F 81.1 °F 55.6 °F 41% 29.89 in 10.0 mi South 11.5 mph - N/A   Clear
4:58 PM 80.6 °F 80.4 °F 54.9 °F 41% 29.87 in 10.0 mi South 13.8 mph - N/A   Clear
5:58 PM 77.9 °F - 57.7 °F 50% 29.86 in 10.0 mi South 12.7 mph - N/A   Clear
6:58 PM 72.3 °F - 58.3 °F 61% 29.86 in 10.0 mi South 9.2 mph - N/A   Partly Cloudy
7:58 PM 69.8 °F - 57.2 °F 64% 29.85 in 10.0 mi SSE 8.1 mph - N/A   Clear
8:58 PM 68.4 °F - 56.3 °F 65% 29.84 in 10.0 mi SSE 10.4 mph - N/A   Clear
9:58 PM 67.1 °F - 55.9 °F 67% 29.84 in 10.0 mi South 11.5 mph - N/A   Clear
10:58 PM 66.2 °F - 56.8 °F 72% 29.83 in 10.0 mi SSE 11.5 mph - N/A   Clear
11:58 PM 65.3 °F - 57.4 °F 76% 29.81 in 10.0 mi SSE 12.7 mph - N/A   Clear